Fergus Falls, MN

2:32 AM CST on November 23, 2017 (GMT -0600)
Fergus Falls Municipal-Mickelson

Weather History for KFFM - January, 2013

Change the Weather History Date:

Tuesday, January 1, 2013

  Actual Average Record
Temperature  
Mean Temperature 5 °F -  
Max Temperature 21 °F 16 °F 40 °F (1964)
Min Temperature -11 °F -1 °F -27 °F (1974)
Degree Days  
Heating Degree Days 60    
Moisture  
Dew Point 4 °F    
Average Humidity 86    
Maximum Humidity 93    
Minimum Humidity 77    
Precipitation  
Precipitation 0.00 in - - ()
Sea Level Pressure  
Sea Level Pressure 30.09 in    
Wind  
Wind Speed 5 mph (South)    
Max Wind Speed 13 mph    
Max Gust Speed -    
Visibility 9 miles    
Events Snow    
Averages and records for this station are not official NWS values.
T = Trace of Precipitation, MM = Missing Value Source: NWS Daily Summary

Daily Weather History Graph

Daily Weather History Graph

Search for Another Location

Airport or City:

Trip Planner

Search our weather history database for the weather conditions in past years. The results will help you decide how hot, cold, wet, or windy it might be!

Date:

Astronomy

Jan. 01, 2013 Rise Set
Actual Time 8:07 AM CST 4:49 PM CST
Civil Twilight 7:33 AM CST 5:23 PM CST
Nautical Twilight 6:55 AM CST 6:02 PM CST
Astronomical Twilight 6:18 AM CST 6:38 PM CST
Moon 9:38 PM CST (1/1) 10:05 AM CST (1/1)
Length of Visible Light 9h 50m
Length of Day
8h 41m
Waning Gibbous, 83% of the Moon is Illuminated
Jan 1
Waning Gibbous
Jan 4
Last Quarter
Jan 11
New
Jan 18
First Quarter
Jan 26
Full

Hourly Weather History & Observations

Time (CST) Temp. Windchill Dew Point Humidity Pressure Visibility Wind Dir Wind Speed Gust Speed Precip Events Conditions
12:13 AM -9.4 °F -18.6 °F -14.8 °F 77% 30.25 in 10.0 mi East 3.5 mph - N/A   Clear
12:33 AM -9.4 °F - -13.0 °F 84% 30.24 in 10.0 mi Calm Calm - N/A   Clear
12:53 AM -9.4 °F -20.9 °F -14.8 °F 77% 30.24 in 7.0 mi SE 4.6 mph - N/A   Clear
1:13 AM -7.6 °F - -13.0 °F 77% 30.24 in 10.0 mi Calm Calm - N/A   Clear
1:33 AM -9.4 °F - -14.8 °F 77% 30.24 in 10.0 mi Calm Calm - N/A   Clear
1:53 AM -9.4 °F - -14.8 °F 77% 30.24 in 10.0 mi Calm Calm - N/A   Clear
2:13 AM -9.4 °F - -14.8 °F 77% 30.23 in 10.0 mi Calm Calm - N/A   Clear
2:33 AM -11.2 °F -23.0 °F -16.6 °F 77% 30.23 in 10.0 mi SSE 4.6 mph - N/A   Clear
2:53 AM -9.4 °F -20.9 °F -14.8 °F 77% 30.23 in 10.0 mi SSE 4.6 mph - N/A   Clear
3:13 AM -9.4 °F -18.6 °F -14.8 °F 77% 30.23 in 10.0 mi SSE 3.5 mph - N/A   Scattered Clouds
3:34 AM -9.4 °F - -13.0 °F 84% 30.23 in 10.0 mi Calm Calm - N/A   Mostly Cloudy
3:53 AM -5.8 °F -14.5 °F -11.2 °F 77% 30.21 in 10.0 mi SE 3.5 mph - N/A   Overcast
4:13 AM -5.8 °F -14.5 °F -9.4 °F 84% 30.21 in 10.0 mi SE 3.5 mph - N/A Snow Light Snow
4:34 AM -4.0 °F - -7.6 °F 85% 30.21 in 10.0 mi Calm Calm - N/A Snow Light Snow
4:53 AM -2.2 °F - -7.6 °F 78% 30.22 in 10.0 mi Calm Calm - N/A Snow Light Snow
5:13 AM -2.2 °F - -5.8 °F 85% 30.21 in 10.0 mi Calm Calm - N/A Snow Light Snow
5:34 AM -0.4 °F -8.3 °F -5.8 °F 78% 30.21 in 10.0 mi SE 3.5 mph - N/A Snow Light Snow
5:53 AM -0.4 °F -10.4 °F -5.8 °F 78% 30.20 in 10.0 mi SE 4.6 mph - N/A Snow Light Snow
6:13 AM -0.4 °F -8.3 °F -4.0 °F 85% 30.20 in 10.0 mi SE 3.5 mph - N/A   Overcast
6:34 AM 1.4 °F -6.2 °F -4.0 °F 78% 30.20 in 10.0 mi ESE 3.5 mph - N/A   Overcast
6:53 AM 1.4 °F -8.3 °F -2.2 °F 85% 30.19 in 10.0 mi SE 4.6 mph - N/A   Overcast
7:13 AM 1.4 °F -6.2 °F -2.2 °F 85% 30.18 in 10.0 mi SSE 3.5 mph - N/A   Overcast
7:34 AM 3.2 °F -9.1 °F -0.4 °F 85% 30.17 in 10.0 mi SSE 6.9 mph - N/A   Overcast
7:53 AM 3.2 °F -10.3 °F -0.4 °F 85% 30.16 in 10.0 mi SSE 8.1 mph - N/A   Overcast
8:13 AM 3.2 °F -10.3 °F -0.4 °F 85% 30.16 in 10.0 mi South 8.1 mph - N/A   Overcast
8:33 AM 3.2 °F -10.3 °F -0.4 °F 85% 30.16 in 10.0 mi South 8.1 mph - N/A   Overcast
9:13 AM 5.0 °F -5.6 °F 1.4 °F 85% 30.16 in 7.0 mi South 5.8 mph - N/A Snow Light Snow
9:33 AM 6.8 °F -4.8 °F 1.4 °F 79% 30.15 in 3.0 mi South 6.9 mph - N/A Snow Light Snow
9:53 AM 6.8 °F -5.9 °F 1.4 °F 79% 30.15 in 1.5 mi South 8.1 mph - N/A Snow Light Snow
10:13 AM 6.8 °F -6.9 °F 3.2 °F 85% 30.14 in 1.8 mi South 9.2 mph - N/A Snow Light Snow
10:33 AM 6.8 °F -6.9 °F 3.2 °F 85% 30.14 in 3.0 mi South 9.2 mph - N/A Snow Light Snow
10:53 AM 8.6 °F -4.7 °F 3.2 °F 79% 30.13 in 5.0 mi South 9.2 mph - N/A Snow Light Snow
11:13 AM 8.6 °F -3.7 °F 6.8 °F 92% 30.12 in 10.0 mi South 8.1 mph - N/A   Overcast
11:33 AM 8.6 °F -4.7 °F 6.8 °F 92% 30.12 in 10.0 mi South 9.2 mph - N/A   Overcast
11:53 AM 10.4 °F -1.5 °F 6.8 °F 85% 30.11 in 10.0 mi South 8.1 mph - N/A   Overcast
12:13 PM 10.4 °F 0.8 °F 8.6 °F 92% 30.10 in 10.0 mi South 5.8 mph - N/A   Overcast
12:33 PM 12.2 °F 1.7 °F 8.6 °F 85% 30.08 in 10.0 mi South 6.9 mph - N/A   Overcast
12:53 PM 12.2 °F 0.7 °F 8.6 °F 85% 30.07 in 10.0 mi South 8.1 mph - N/A   Overcast
1:13 PM 12.2 °F 0.7 °F 10.4 °F 92% 30.07 in 10.0 mi South 8.1 mph - N/A   Overcast
1:33 PM 12.2 °F 1.7 °F 10.4 °F 92% 30.06 in 10.0 mi South 6.9 mph - N/A   Overcast
1:53 PM 14.0 °F 2.9 °F 10.4 °F 86% 30.05 in 10.0 mi South 8.1 mph - N/A   Overcast
2:13 PM 15.8 °F 5.1 °F 12.2 °F 86% 30.05 in 10.0 mi South 8.1 mph - N/A   Overcast
2:33 PM 15.8 °F 5.1 °F 12.2 °F 86% 30.04 in 10.0 mi South 8.1 mph - N/A   Overcast
2:53 PM 15.8 °F 6.1 °F 12.2 °F 86% 30.04 in 10.0 mi South 6.9 mph - N/A   Overcast
3:13 PM 15.8 °F 5.1 °F 12.2 °F 86% 30.03 in 10.0 mi South 8.1 mph - N/A   Overcast
3:33 PM 17.6 °F 6.4 °F 14.0 °F 86% 30.03 in 10.0 mi South 9.2 mph - N/A   Overcast
3:53 PM 17.6 °F 8.2 °F 14.0 °F 86% 30.03 in 10.0 mi South 6.9 mph - N/A   Overcast
4:13 PM 17.6 °F 8.2 °F 14.0 °F 86% 30.02 in 10.0 mi South 6.9 mph - N/A   Overcast
4:33 PM 17.6 °F 8.2 °F 15.8 °F 93% 30.02 in 10.0 mi South 6.9 mph - N/A   Overcast
4:53 PM 17.6 °F 8.2 °F 15.8 °F 93% 30.01 in 10.0 mi South 6.9 mph - N/A   Overcast
5:13 PM 19.4 °F 9.5 °F 15.8 °F 86% 30.01 in 10.0 mi SSE 8.1 mph - N/A   Overcast
5:33 PM 19.4 °F 11.5 °F 15.8 °F 86% 30.01 in 10.0 mi South 5.8 mph - N/A   Overcast
5:53 PM 19.4 °F 9.5 °F 17.6 °F 93% 30.00 in 10.0 mi South 8.1 mph - N/A   Overcast
6:13 PM 19.4 °F 10.4 °F 17.6 °F 93% 29.99 in 10.0 mi South 6.9 mph - N/A   Overcast
6:33 PM 21.2 °F 10.9 °F 19.4 °F 93% 29.98 in 10.0 mi SSW 9.2 mph - N/A   Overcast
6:53 PM 21.2 °F 10.9 °F 19.4 °F 93% 29.98 in 10.0 mi SSW 9.2 mph - N/A   Overcast
7:13 PM 21.2 °F 10.9 °F 19.4 °F 93% 29.97 in 10.0 mi SSW 9.2 mph - N/A   Overcast
7:33 PM 21.2 °F 10.1 °F 19.4 °F 93% 29.97 in 10.0 mi SSW 10.4 mph - N/A   Overcast
7:53 PM 21.2 °F 9.5 °F 19.4 °F 93% 29.97 in 10.0 mi SSW 11.5 mph - N/A   Overcast
8:13 PM 21.2 °F 8.9 °F 17.6 °F 86% 29.95 in 10.0 mi SSW 12.7 mph - N/A   Overcast
8:33 PM 21.2 °F 10.1 °F 17.6 °F 86% 29.95 in 10.0 mi SSW 10.4 mph - N/A   Overcast
8:53 PM 19.4 °F 7.9 °F 15.8 °F 86% 29.95 in 10.0 mi SW 10.4 mph - N/A   Overcast
9:14 PM 17.6 °F 6.4 °F 14.0 °F 86% 29.94 in 10.0 mi SSW 9.2 mph - N/A   Mostly Cloudy
9:33 PM 14.0 °F 2.0 °F 12.2 °F 93% 29.94 in 10.0 mi SSW 9.2 mph - N/A   Scattered Clouds
9:53 PM 14.0 °F 3.9 °F 10.4 °F 86% 29.95 in 10.0 mi SW 6.9 mph - N/A   Scattered Clouds
10:13 PM 12.2 °F 0.7 °F 10.4 °F 92% 29.94 in 10.0 mi SSW 8.1 mph - N/A   Scattered Clouds
10:33 PM 10.4 °F 0.8 °F 8.6 °F 92% 29.94 in 10.0 mi South 5.8 mph - N/A   Clear
10:53 PM 10.4 °F -0.4 °F 8.6 °F 92% 29.93 in 10.0 mi South 6.9 mph - N/A   Clear
11:13 PM 10.4 °F -1.5 °F 8.6 °F 92% 29.93 in 10.0 mi SSW 8.1 mph - N/A   Clear
11:33 PM 10.4 °F 2.2 °F 8.6 °F 92% 29.93 in 10.0 mi South 4.6 mph - N/A   Clear
11:53 PM 8.6 °F -1.3 °F 6.8 °F 92% 29.93 in 10.0 mi South 5.8 mph - N/A   Clear